Flag for Ukraine Weather past 2 weeks in Luhansk, Ukraine

Now
59 °F

Partly sunny.


Feels Like: 55 °F
Forecast: 38 / 64 °F
Wind: 24 mph from East

Location: Rostov-Na-Donu

Current Time: Sep 20, 2014 at 1:15:14 PM

Latest Report: Sep 20, 2014 at 12:30 PM


Visibility: N/A

Pressure: 30.18 "Hg

Humidity: 55%

Dew point: 43 °F

Location of LuhanskLocation

Historic Weather in Luhansk — Graph

°F

Luhansk temperature yesterday

Maximum temperature yesterday: 66 °F (at 12:30 PM)
Minimum temperature yesterday: 46 °F (at 3:30 AM)
Average temperature yesterday: 56 °F

Past Weeks' High & Low Weather Summary

 TemperatureHumidityPressure
High84 °F (Sep 7, 4:00 PM)100% (Sep 8, 10:30 AM)30.27 "Hg (Sep 8, 10:30 AM)
Low46 °F (Sep 18, 3:30 AM)20% (Sep 18, 3:00 PM)29.83 "Hg (Sep 7, 6:30 PM)
Average65 °F56%30.03 "Hg
* Reported Sep 5 12:00 Noon — Sep 20 12:00 Noon, Luhansk, Weather by CustomWeather, © 2014

Note: Actual official high and low records may vary slightly from our data, if they occured in-between our weather recording intervals... More about our weather records

Advertising

Luhansk weather history for previous 24 hours

 ConditionsComfort  
Time TempWeatherWind HumidityBarometerVisibility
12:00 PM
Sep 20
61 °FPartly sunny.15 mph48%30.18 "HgN/A
11:30 AM61 °FScattered clouds.17 mph48%30.18 "HgN/A
11:00 AM59 °FScattered clouds.22 mph48%30.18 "HgN/A
10:30 AM57 °FPartly sunny.17 mph51%30.21 "HgN/A
10:00 AM57 °FPartly sunny.15 mph51%30.21 "HgN/A
9:30 AM55 °FPartly sunny.22 mph59%30.21 "HgN/A
9:00 AM55 °FPartly sunny.20 mph59%30.21 "HgN/A
8:30 AM54 °FPartly sunny.15 mph63%30.21 "HgN/A
8:00 AM52 °FPartly sunny.17 mph62%30.21 "HgN/A
7:30 AM52 °FSunny.20 mph58%30.21 "Hg10 mi
7:00 AM52 °FClear.15 mph58%30.21 "Hg10 mi
6:30 AM50 °FPassing clouds.13 mph62%30.21 "HgN/A
6:00 AM50 °FPartly cloudy.13 mph67%30.21 "HgN/A
5:30 AM52 °FPartly cloudy.15 mph62%30.21 "HgN/A
5:00 AM52 °FPartly cloudy.15 mph58%30.21 "HgN/A
4:00 AM52 °FPartly cloudy.13 mph62%30.21 "HgN/A
3:30 AM52 °FPartly cloudy.13 mph67%30.21 "HgN/A
3:00 AM52 °FPartly cloudy.13 mph67%30.21 "HgN/A
2:30 AM52 °FPassing clouds.10 mph67%30.21 "HgN/A
2:00 AM52 °FPassing clouds.13 mph72%30.21 "HgN/A
1:30 AM52 °FPassing clouds.10 mph72%30.21 "HgN/A
1:00 AM52 °FClear.10 mph72%30.21 "Hg10 mi
12:30 AM52 °FClear.10 mph72%30.24 "Hg10 mi
12:00 AM52 °FClear.10 mph67%30.24 "Hg10 mi
11:30 PM
Sep 19
50 °FClear.6 mph67%30.24 "Hg10 mi
11:00 PM52 °FClear.8 mph62%30.24 "Hg10 mi
10:30 PM52 °FClear.8 mph62%30.24 "Hg10 mi
10:00 PM52 °FClear.6 mph72%30.24 "Hg10 mi
9:30 PM54 °FClear.6 mph67%30.27 "Hg10 mi
9:00 PM55 °FClear.6 mph59%30.27 "Hg10 mi
8:30 PM57 °FClear.6 mph55%30.27 "Hg10 mi
8:00 PM57 °FClear.6 mph51%30.27 "Hg10 mi
7:30 PM61 °FClear.6 mph45%30.24 "Hg10 mi
7:00 PM61 °FBroken clouds.8 mph45%30.24 "HgN/A
6:30 PM61 °FBroken clouds.8 mph42%30.24 "HgN/A
6:00 PM63 °FBroken clouds.10 mph39%30.24 "HgN/A
5:30 PM63 °FBroken clouds.15 mph37%30.24 "HgN/A
5:00 PM63 °FBroken clouds.15 mph34%30.24 "HgN/A
4:30 PM64 °FBroken clouds.15 mph37%30.24 "HgN/A
4:00 PM64 °FBroken clouds.15 mph34%30.24 "HgN/A
3:30 PM64 °FBroken clouds.15 mph40%30.24 "HgN/A
3:00 PM64 °FBroken clouds.17 mph37%30.24 "HgN/A
2:30 PM64 °FBroken clouds.20 mph37%30.24 "HgN/A
2:00 PM64 °FBroken clouds.20 mph37%30.24 "HgN/A
1:30 PM64 °FPartly sunny.20 mph37%30.24 "HgN/A
1:00 PM64 °FSunny.22 mph37%30.24 "Hg10 mi
Weather by CustomWeather, © 2014

See weather overviewHow to use our weather pages